Regional Weather Roundup
Issued by NWS

Home | Current Version | Previous Version | Text Only | Print | Product List | Glossary Off
Versions: 1 2 3 4 5 6 7 8 9 10 11 12 13 14 15 16 17 18 19 20 21 22 23 24 25 26 27 28 29 30 31 32 33 34 35 36 37 38 39 40 41 42 43 44 45 46 47 48 49 50

000
ASUS43 KDMX 201506
RWRIA

WEATHER ROUNDUP FOR IOWA
NATIONAL WEATHER SERVICE DES MOINES IA
1000 AM CDT FRI OCT 20 2017

NOTE: "FAIR" INDICATES FEW OR NO CLOUDS BELOW 12,000 FEET WITH NO
SIGNIFICANT WEATHER AND/OR OBSTRUCTIONS TO VISIBILITY.

* - THESE STATIONS ARE NOT NWS STATIONS...THUS NOT UNDER NWS
QUALITY CONTROL.  THEY ALSO DO NOT REPORT WEATHER SUCH
AS PRECIPITATION OR FOG.

IAZ001>003-012>014-020>022-031>034-043>046-201600-
   NORTHWEST IOWA

CITY           SKY/WX    TMP DP  RH WIND       PRES   REMARKS
CARROLL *      MOSUNNY   79  70  73 S21G29    29.95F HX  81
CHEROKEE *     PTSUNNY   61  54  78 S14       29.89F
DENISON *      MOSUNNY   63  54  72 S18G26    29.94F
LE MARS *      MOSUNNY   61  52  72 S18G25    29.85F
ORANGE CITY *  MOSUNNY   63  55  77 S18G28    29.85F
SHELDON *      MOSUNNY   63  52  67 S17G24    29.84F
SIOUX CITY     CLOUDY    61  54  77 S12G20    29.86F
SPENCER        SUNNY     62  53  72 S14       29.89F
STORM LAKE *   MOSUNNY   63  52  67 S18G25    29.92S
$$

IAZ055>058-069>071-079>083-090>094-201600-
   SOUTHWEST IOWA

CITY           SKY/WX    TMP DP  RH WIND       PRES   REMARKS
ATLANTIC *     MOSUNNY   63  54  72 S15G24    29.98S
AUDUBON *      CLOUDY    64  55  72 S15G21    29.98S
CLARINDA *     CLOUDY    63  55  77 S13G20    30.03F
COUNCIL BLFS * PTSUNNY   66  55  68 S22       29.94F
CRESTON *      SUNNY     61  54  77 S16G23    30.04F
HARLAN  *      PTSUNNY   63  54  72 S15G22    29.99F
LAMONI         MOSUNNY   60  53  77 S12       30.06F
RED OAK *      MOSUNNY   64  54  68 S16G28    29.98F
SHENANDOAH *   CLOUDY    63  54  72 S18G24    29.98F
$$

IAZ047>049-059>061-072>074-084-201600-
   CENTRAL IOWA

CITY           SKY/WX    TMP DP  RH WIND       PRES   REMARKS
AMES           SUNNY     63  55  75 S13G20    30.02S
ANKENY *       SUNNY     64  54  68 S10G16    30.04S
BOONE *        SUNNY     63  54  72 S10G20    30.00F
CHARITON *     SUNNY     63  54  72 S12G18    30.06F
DES MOINES     PTSUNNY   64  54  69 S9        30.03F
GRINNELL*      SUNNY     62  53  72 S12       30.08
KNOXVILLE *    SUNNY     64  52  63 S10       30.05S
MARSHALLTOWN   CLOUDY    65  55  70 S14G20    30.03F
NEWTON *       SUNNY     63  54  72 S9G16     30.06S
PELLA *        SUNNY     64  53  67 S8        30.08S
PERRY *          N/A     64  55  72 S13G18    30.00F
$$

IAZ004>006-015-016-023>025-035-036-201600-
   NORTH CENTRAL IOWA

CITY           SKY/WX    TMP DP  RH WIND       PRES   REMARKS
ALGONA *       SUNNY     61  55  82 S17       29.94F
CLARION *      SUNNY     61  55  82 S16       29.98S
ESTHERVILLE    SUNNY     58  53  84 S16       29.90F
FORT DODGE *   MOSUNNY   63  53  70 S16       29.97F
MASON CITY     SUNNY     61  53  75 S14G22    30.00S
FOREST CITY *    N/A     63  52  67 S15G22    29.97F
WEBSTER CITY * SUNNY     61  52  72 S10G18    29.98S
IOWA FALLS *     N/A     61  54  77 S13       30.03F
$$

IAZ007>011-017>019-026>030-037>042-050>054-066-201600-
   NORTHEAST IOWA

CITY           SKY/WX    TMP DP  RH WIND       PRES   REMARKS
CEDAR RAPIDS   SUNNY     60  53  77 S8        30.09S
CHARLES CITY * SUNNY     61  54  77 S10       30.03S
CLINTON *      SUNNY     63  54  72 S10       30.14S
DECORAH *      SUNNY     63  52  67 S9        30.03F
DUBUQUE        SUNNY     60  52  74 SW13      30.11S
MONTICELLO *   SUNNY     63  54  72 S10       30.10S
OELWEIN *      SUNNY     61  55  82 S14       30.07S
WATERLOO       SUNNY     59  52  77 S9        30.04S
$$

IAZ064-065-067-068-078-201600-
   EAST CENTRAL IOWA

CITY           SKY/WX    TMP DP  RH WIND       PRES   REMARKS
DAVENPORT        N/A     65  52  62 S8        30.15F
IOWA CITY      SUNNY     61  54  77 SE5       30.12F
MT. PLEASANT * SUNNY     65  51  60 S13       30.13F
MUSCATINE *    SUNNY     63  54  72 S8        30.13F
QUAD CITIES    SUNNY     66  52  60 S9        30.13S
$$

IAZ062-063-075>077-085>089-095>099-201600-
   SOUTHEAST IOWA

CITY           SKY/WX    TMP DP  RH WIND       PRES   REMARKS
BURLINGTON     SUNNY     64  53  67 S10       30.14F
FAIRFIELD *    SUNNY     63  52  67 S8G16     30.11S
FORT MADISON * SUNNY     64  54  68 S7        30.15F
KEOKUK *       SUNNY     64  54  68 VRB7G15   30.14S
OSKALOOSA *      N/A     61  53  76 S12       30.09F
CENTERVILLE *    N/A     64  54  68 S6        30.10F
OTTUMWA        SUNNY     61  53  75 S12       30.09S
WASHINGTON *   SUNNY     63  54  72 S13       30.12F
$$

ABBREVIATIONS USED IN REMARKS
   TC - TEMPERATURES IN CELSIUS
  WCI - WIND CHILL INDEX
   HX - HEAT INDEX
  VSB - VISIBILITY
$$





USA.gov is the U.S. government's official web portal to all federal, state and local government web resources and services.